[[{"header":{"parameterUnit":"m.s-1","parameterCategory":1,"la1":30.2991,"la2":30.254,"lo1":-89.0895,"lo2":-89.0444,"dy":0.0017,"dx":0.0017,"nx":28,"ny":28,"refTime":"2023-10-28T21:00:00:Z","depth":0,"parameterNumber":2,"parameterNumberName":"U-component_of_WINDS"},"data":[0,0,0,0,0,0,0,0,0,0,0,0,0,0,0,0,0,0,0,0,0,0,0,0,0,0,0,0,0,0,0,0,0,0,0,0,0,0,0,0,0,0,0,0,0,0,0,0,0,0,0,0,0,0,0,0,0,0,-0.241,-0.2413,0,-0.2683,-0.2686,-0.269,-0.2789,-0.2788,-0.2787,-0.2786,-0.3079,-0.3088,-0.3096,0,0,0,0,0,0,0,0,0,0,0,0,0,-0.1987,-0.1994,-0.2409,-0.2413,-0.2416,-0.2683,-0.2687,-0.269,-0.2789,-0.2788,-0.2786,-0.2785,-0.3076,-0.3087,-0.3097,0,0,0,0,0,0,0,0,0,0,0,0,0,-0.2206,-0.1996,-0.2409,-0.2497,-0.2508,-0.2682,-0.2687,-0.2691,-0.2789,-0.2788,-0.2786,-0.2785,-0.3073,-0.3086,-0.3099,-0.3209,0,0,-0.3139,-0.3144,0,0,0,0,0,0,0,0,-0.2194,-0.2222,-0.2481,-0.2491,-0.2504,-0.27,-0.2645,-0.2865,-0.2789,-0.2683,-0.2786,-0.2784,-0.2955,-0.2978,-0.3033,-0.3223,-0.3236,-0.314,-0.3148,-0.3153,-0.3157,0,0,0,0,0,0,0,-0.2179,-0.2211,-0.2518,-0.2485,-0.2499,-0.2528,-0.2557,-0.2687,-0.2825,-0.2692,-0.27,-0.273,-0.2961,-0.302,-0.3041,-0.324,-0.314,-0.3151,-0.3159,-0.3164,-0.3538,-0.354,0,0,0,0,0,0,-0.2147,-0.2197,-0.251,-0.2527,-0.2341,-0.2537,-0.257,-0.2639,-0.2823,-0.285,-0.2731,-0.2734,-0.2998,-0.3025,-0.3051,-0.3195,-0.3153,-0.3166,-0.3173,-0.3536,-0.3538,-0.3541,0,0,0,0,0,0,-0.2137,-0.2173,-0.2499,-0.2364,-0.2408,-0.2545,-0.2622,-0.2645,-0.2704,-0.2852,-0.2879,-0.2765,-0.2998,-0.3033,-0.3169,-0.3207,-0.3172,-0.3183,-0.3534,-0.3537,-0.354,-0.3482,0,0,0,0,0,0,-0.2124,-0.2169,-0.2209,-0.2364,-0.2414,-0.2607,-0.2624,-0.2651,-0.2724,-0.273,-0.2891,-0.2917,-0.3,-0.3149,-0.3182,-0.3224,-0.3194,-0.3531,-0.3535,-0.3539,-0.3481,-0.3483,-0.3484,0,0,0,0,0,-0.2109,-0.2185,-0.2211,-0.2248,-0.2467,-0.2609,-0.2639,-0.2729,-0.2727,-0.2771,-0.2867,-0.2912,-0.3196,-0.3162,-0.32,-0.3247,-0.3529,-0.3534,-0.3538,-0.3481,-0.3482,-0.3484,0,0,0,0,0,0,-0.2036,-0.2207,-0.2238,-0.2365,-0.2471,-0.2625,-0.2684,-0.2727,-0.284,-0.2842,-0.2953,-0.2989,-0.3117,-0.3196,-0.3154,-0.3365,-0.3366,-0.3378,-0.3309,-0.3312,-0.3313,-0.3293,-0.3205,0,0,0,0,0,-0.2033,-0.213,-0.2276,-0.2375,-0.2426,-0.2545,-0.2611,-0.267,-0.2787,-0.2834,-0.294,-0.3056,-0.3172,-0.3246,-0.336,-0.3492,-0.3531,-0.3543,-0.3545,-0.3545,-0.3556,-0.3635,-0.3643,-0.3556,-0.3556,-0.3556,0,0,-0.2032,-0.2137,-0.2193,-0.2363,-0.2452,-0.2555,-0.2583,-0.269,-0.2769,-0.2852,-0.2987,-0.3068,-0.3205,-0.3339,-0.3404,-0.3409,-0.3588,-0.3551,-0.355,-0.3561,-0.364,-0.3648,-0.3655,-0.3559,-0.3559,-0.3558,0,0,-0.2082,-0.2169,-0.2261,-0.235,-0.2483,-0.2562,-0.2584,-0.2732,-0.2788,-0.2923,-0.2989,-0.3086,-0.3282,-0.3377,-0.3452,-0.3537,-0.3584,-0.3571,-0.358,-0.3655,-0.3662,-0.3669,-0.3703,-0.3713,-0.3581,-0.358,-0.358,0,-0.2065,-0.2217,-0.2305,-0.2408,-0.2483,-0.2558,-0.2656,-0.2738,-0.2904,-0.2957,-0.2958,-0.3206,-0.3304,-0.3463,-0.3483,-0.354,-0.3572,-0.3555,-0.3653,-0.3661,-0.3669,-0.3702,-0.3714,-0.3578,-0.3579,-0.3579,-0.3579,0,-0.2191,-0.2295,-0.2355,-0.2508,-0.259,-0.2689,-0.2797,-0.287,-0.2922,-0.3002,-0.3141,-0.326,-0.3401,-0.3442,-0.3497,-0.3611,-0.361,-0.363,-0.3635,-0.3673,-0.3707,-0.372,-0.3575,-0.3576,-0.3577,-0.3577,0,0,-0.2205,-0.2403,-0.2424,-0.2495,-0.2648,-0.2733,-0.2838,-0.2971,-0.3033,-0.3145,-0.3239,-0.3403,-0.3423,-0.3507,-0.3573,-0.3638,-0.3702,-0.3652,-0.3657,-0.366,-0.3839,-0.3825,-0.3838,-0.3732,-0.3735,-0.3737,-0.3829,0,-0.2277,-0.2462,-0.2544,-0.2695,-0.2795,-0.2868,-0.296,-0.3066,-0.3143,-0.3244,-0.3331,-0.3446,-0.3463,-0.3514,-0.3582,-0.3679,-0.374,-0.3674,-0.3826,-0.383,-0.3792,-0.3855,-0.384,-0.3921,-0.3842,-0.3845,-0.3846,0,-0.2386,-0.2493,-0.2652,-0.2793,-0.2839,-0.2919,-0.3049,-0.3142,-0.3265,-0.3318,-0.341,-0.3472,-0.359,-0.3583,-0.3749,-0.3702,-0.377,-0.3827,-0.3832,-0.3853,-0.3843,-0.3881,-0.3948,-0.3961,-0.3867,-0.3866,-0.3864,0,-0.2384,-0.2569,-0.2688,-0.2747,-0.2913,-0.2969,-0.3042,-0.3163,-0.3238,-0.3353,-0.3404,-0.3532,-0.3604,-0.3704,-0.3801,-0.3786,-0.3959,-0.396,-0.401,-0.4008,-0.4047,-0.4043,-0.4129,-0.4084,-0.4083,-0.4083,-0.4083,0,-0.2458,-0.2553,-0.2689,-0.2763,-0.2873,-0.2969,-0.3077,-0.3156,-0.3263,-0.3358,-0.3429,-0.3517,-0.3638,-0.3743,-0.382,-0.3948,-0.3979,-0.4028,-0.4048,-0.4024,-0.4018,-0.4072,-0.407,-0.4086,-0.4086,-0.4085,-0.4084,0,-0.2476,-0.257,-0.2705,-0.285,-0.289,-0.2965,-0.3092,-0.3169,-0.3249,-0.3367,-0.3401,-0.3528,-0.3655,-0.376,-0.3928,-0.398,-0.4115,-0.4136,-0.4072,-0.4083,-0.4129,-0.4124,-0.4255,-0.4279,-0.4213,-0.4214,-0.4214,0,-0.2518,-0.2593,-0.2745,-0.281,-0.2881,-0.2986,-0.3062,-0.316,-0.3237,-0.3383,-0.3444,-0.3574,-0.3685,-0.3885,-0.3995,-0.4125,-0.4153,-0.4189,-0.4173,-0.4146,-0.4158,-0.4153,-0.4163,-0.4192,-0.4192,-0.4192,-0.4192,0,-0.2585,-0.2627,-0.2731,-0.2852,-0.294,-0.3041,-0.3145,-0.3196,-0.3313,-0.3397,-0.3525,-0.361,-0.3779,-0.391,-0.4051,-0.4132,-0.4184,-0.4196,-0.4215,-0.4193,-0.4153,-0.4179,-0.4079,-0.4193,-0.4193,-0.4193,-0.4193,-0.4193,-0.262,-0.269,-0.2807,-0.2922,-0.3008,-0.3103,-0.3183,-0.3271,-0.3377,-0.352,-0.3572,-0.3704,-0.3829,-0.4022,-0.4103,-0.4212,-0.4218,-0.4245,-0.4253,-0.4259,-0.4257,-0.4132,-0.4238,-0.4238,-0.4238,-0.4238,-0.4238,0,-0.2693,-0.2771,-0.2875,-0.3015,-0.3106,-0.314,-0.3257,-0.3332,-0.3446,-0.3555,-0.366,-0.3809,-0.3936,-0.4055,-0.419,-0.4254,-0.4281,-0.4286,-0.4284,-0.4303,-0.4242,-0.4213,-0.4262,-0.4262,-0.4262,-0.4262,-0.4262,-0.4262,-0.2742,-0.2863,-0.2919,-0.3086,-0.3165,-0.3291,-0.3355,-0.3445,-0.3533,-0.3693,-0.3798,-0.3872,-0.3988,-0.413,-0.425,-0.4282,-0.4331,-0.433,-0.4369,-0.4311,-0.4307,-0.4304,-0.4277,-0.4338,-0.4338,-0.4422,-0.4422,-0.4423]},{"header":{"parameterUnit":"m.s-1","parameterCategory":1,"la1":30.2991,"la2":30.254,"lo1":-89.0895,"lo2":-89.0444,"dy":0.0017,"dx":0.0017,"nx":28,"ny":28,"refTime":"2023-10-28T21:00:00:Z","depth":0,"parameterNumber":3,"parameterNumberName":"V-component_of_WINDS"},"data":[0,0,0,0,0,0,0,0,0,0,0,0,0,0,0,0,0,0,0,0,0,0,0,0,0,0,0,0,0,0,0,0,0,0,0,0,0,0,0,0,0,0,0,0,0,0,0,0,0,0,0,0,0,0,0,0,0,0,0.979,0.979,0,0.9843,0.9844,0.9844,0.9895,0.9896,0.9896,0.9897,0.9949,0.995,0.9951,0,0,0,0,0,0,0,0,0,0,0,0,0,0.9726,0.9727,0.9789,0.979,0.9791,0.9843,0.9844,0.9845,0.9895,0.9896,0.9897,0.9897,0.9949,0.995,0.9951,0,0,0,0,0,0,0,0,0,0,0,0,0,0.9764,0.9727,0.9789,0.9822,0.9826,0.9843,0.9844,0.9845,0.9895,0.9896,0.9897,0.9898,0.9949,0.995,0.9951,0.9939,0,0,0.9955,0.9955,0,0,0,0,0,0,0,0,0.9762,0.9766,0.9817,0.982,0.9824,0.9864,0.9841,0.9876,0.9895,0.9869,0.9897,0.9898,0.992,0.9923,0.9931,0.9941,0.9944,0.9955,0.9955,0.9956,0.9956,0,0,0,0,0,0,0,0.9759,0.9764,0.9811,0.9817,0.9822,0.9833,0.984,0.9848,0.9888,0.9871,0.9875,0.9881,0.9922,0.993,0.9933,0.9944,0.9955,0.9956,0.9956,0.9957,0.9945,0.9944,0,0,0,0,0,0,0.9752,0.9762,0.9809,0.9812,0.9795,0.9833,0.9841,0.985,0.9888,0.9895,0.988,0.9883,0.9928,0.9931,0.9935,0.9922,0.9956,0.9957,0.9958,0.9946,0.9945,0.9943,0,0,0,0,0,0,0.975,0.9756,0.9807,0.9788,0.9795,0.9834,0.9843,0.985,0.9859,0.9895,0.9902,0.9881,0.9928,0.9933,0.9937,0.9925,0.9958,0.9959,0.9947,0.9945,0.9944,0.9897,0,0,0,0,0,0,0.9748,0.9755,0.9752,0.9788,0.9796,0.9809,0.9843,0.9851,0.9861,0.9865,0.9898,0.9904,0.993,0.9935,0.9938,0.9927,0.996,0.9948,0.9946,0.9944,0.99,0.9894,0.9889,0,0,0,0,0,0.9746,0.9736,0.9752,0.9757,0.9794,0.9809,0.9814,0.9844,0.986,0.9856,0.9879,0.9903,0.9925,0.9935,0.9939,0.9928,0.9949,0.9947,0.9945,0.9902,0.9895,0.9889,0,0,0,0,0,0,0.9698,0.9742,0.9759,0.9761,0.9781,0.9817,0.9814,0.9836,0.9851,0.9854,0.9891,0.9897,0.9897,0.9913,0.9923,0.9917,0.994,0.9939,0.9907,0.99,0.9895,0.9891,0.9961,0,0,0,0,0,0.9688,0.9697,0.9735,0.9733,0.9742,0.9776,0.9784,0.9805,0.9827,0.9835,0.9859,0.9877,0.9889,0.9895,0.9908,0.9902,0.9909,0.9896,0.989,0.9886,0.9884,0.988,0.9874,0.9936,0.9936,0.9936,0,0,0.9666,0.9692,0.9696,0.9724,0.9742,0.9749,0.9783,0.979,0.9796,0.9836,0.9841,0.9859,0.9882,0.988,0.9881,0.9894,0.9868,0.9883,0.9879,0.9879,0.9877,0.9871,0.9866,0.9934,0.9935,0.9935,0,0,0.9632,0.9652,0.9652,0.9669,0.9695,0.9718,0.9717,0.975,0.9763,0.9769,0.9799,0.9805,0.9824,0.9839,0.9849,0.9817,0.9839,0.982,0.9792,0.9787,0.9782,0.9778,0.9766,0.9761,0.9818,0.9818,0.9818,0,0.9602,0.9616,0.9649,0.9654,0.9664,0.9701,0.97,0.9715,0.9743,0.9749,0.9763,0.9786,0.9805,0.9806,0.9798,0.9806,0.9805,0.9817,0.9781,0.9777,0.9773,0.9762,0.9757,0.9815,0.9816,0.9816,0.9816,0,0.9577,0.9586,0.9582,0.9609,0.9619,0.9621,0.9653,0.9659,0.9678,0.9699,0.9703,0.9726,0.9743,0.9745,0.9764,0.9748,0.9755,0.9774,0.9799,0.9764,0.9754,0.975,0.9812,0.9813,0.9813,0.9814,0,0,0.9515,0.9559,0.9557,0.9568,0.9599,0.9606,0.9608,0.9625,0.9629,0.9647,0.9648,0.9662,0.968,0.9691,0.9712,0.9709,0.9679,0.9728,0.9729,0.9717,0.9661,0.9646,0.9641,0.9694,0.9693,0.9693,0.9659,0,0.9485,0.9493,0.9521,0.952,0.9527,0.9561,0.9562,0.958,0.9599,0.9606,0.9626,0.9635,0.9658,0.9665,0.9663,0.9684,0.9669,0.9686,0.9695,0.9695,0.9688,0.9635,0.962,0.9587,0.9655,0.9654,0.9654,0,0.9452,0.9467,0.9466,0.9494,0.9498,0.95,0.9516,0.9524,0.9544,0.9557,0.9568,0.9592,0.9594,0.9617,0.962,0.9631,0.9636,0.9646,0.9646,0.9647,0.9672,0.9635,0.9577,0.9572,0.9648,0.9648,0.9649,0,0.9405,0.9425,0.9427,0.9436,0.9469,0.9469,0.9483,0.9504,0.9511,0.9525,0.953,0.9544,0.9551,0.956,0.9586,0.96,0.9585,0.961,0.9595,0.9594,0.9591,0.959,0.9532,0.9594,0.9594,0.9594,0.9594,0,0.9368,0.9366,0.9406,0.9407,0.9405,0.9436,0.9433,0.9449,0.9467,0.9471,0.9501,0.9503,0.9537,0.9543,0.9563,0.9561,0.9564,0.9574,0.958,0.9571,0.957,0.9575,0.9578,0.9593,0.9593,0.9594,0.9594,0,0.9316,0.9343,0.9347,0.9378,0.9385,0.9382,0.9407,0.9409,0.9428,0.9432,0.9434,0.9464,0.9472,0.9499,0.9514,0.9527,0.9519,0.9529,0.9512,0.9515,0.9498,0.9499,0.9441,0.9434,0.9501,0.95,0.95,0,0.9291,0.929,0.932,0.9324,0.9337,0.9344,0.9351,0.9381,0.9388,0.9409,0.9407,0.9418,0.9428,0.9439,0.9461,0.9472,0.9482,0.9461,0.9484,0.9475,0.9481,0.948,0.948,0.9456,0.9455,0.9454,0.9454,0,0.9242,0.9255,0.9265,0.9279,0.9287,0.9299,0.9313,0.9315,0.9348,0.9354,0.9362,0.937,0.9384,0.9394,0.9408,0.942,0.9442,0.9446,0.9443,0.9435,0.9424,0.9428,0.9498,0.9447,0.9448,0.9449,0.9449,0.9449,0.9203,0.9202,0.9223,0.9232,0.9246,0.9257,0.9259,0.9278,0.9286,0.9301,0.9317,0.9323,0.9341,0.9362,0.9373,0.9377,0.9389,0.9385,0.9384,0.9382,0.9378,0.9424,0.938,0.938,0.9381,0.9381,0.9381,0,0.9155,0.9169,0.9177,0.9196,0.9202,0.9222,0.9238,0.9242,0.9247,0.9262,0.9271,0.9279,0.9288,0.931,0.9321,0.932,0.9329,0.9321,0.9321,0.9324,0.9367,0.9368,0.9313,0.9313,0.9313,0.9313,0.9313,0.9313,0.9131,0.9131,0.9146,0.9152,0.9166,0.9172,0.9179,0.919,0.9201,0.921,0.9217,0.9232,0.9249,0.926,0.9268,0.9275,0.9277,0.9265,0.9274,0.9314,0.9321,0.9327,0.9328,0.9265,0.9265,0.923,0.923,0.923]}]]